Location: Mount Cross
(36.6390°N, 79.4878°W)
Time: 12:26:57
(UTC+00:00)

Hubble Space Telescope - Visible Passes

Search period start: 29 January 2023 00:00
Search period end: 08 February 2023 00:00
Orbit: 529 x 532 km, 28.5° (Epoch: 28 January)

Date Brightness Start Highest point End Pass type
(mag) Time Alt. Az. Time Alt. Az. Time Alt. Az.
29 Jan 2.3 10:40:13 23° SSW 10:40:57 25° S 10:44:18 10° SE visible
30 Jan 2.4 10:27:52 24° S 10:27:52 24° S 10:31:05 10° SE visible
31 Jan 2.7 10:15:31 21° S 10:15:31 21° S 10:17:50 10° SE visible
01 Feb 3.1 10:03:11 16° SSE 10:03:11 16° SSE 10:04:31 10° SE visible
02 Feb 3.6 09:50:53 11° SSE 09:50:53 11° SSE 09:51:08 10° SSE visible
